Simultaneous Nadir Overpasses (SNOs) Predictions

Prediction of SNOs between GOES-16 and METOP-B Satellite Orbit:

Table of predicted SNOs for the next 14.0 days since TLE Epoch: 10/17/2025
Index Date Time (GOES-16) GOES-16 Lat,Lon METOP-B Lat,Lon Distance(km) Time Diff (sec)
1 10/19/2025 04:02:55 -0.05,-104.66 -0.20,-105.23 64.99 80
2 10/21/2025 15:58:46 0.06,-104.72 0.07,-104.88 17.48 80
3 10/24/2025 03:57:23 -0.07,-104.67 -0.01,-104.55 14.54 80
4 10/26/2025 15:58:33 0.08,-104.72 -0.07,-104.19 61.26 80
5 10/28/2025 04:17:41 -0.08,-104.66 -1.03,-108.81 473.10 80
6 10/29/2025 03:54:29 -0.08,-104.66 0.10,-103.85 92.70 80
7 10/30/2025 16:13:31 0.08,-104.71 0.93,-108.45 426.69 80
8 10/31/2025 15:55:39 0.09,-104.71 -0.20,-103.49 139.47 80
